Regional Weather Roundup
Issued by NWS

Home | Current Version | Previous Version | Text Only | Print | Product List | Glossary On
Versions: 1 2 3 4 5 6 7 8 9 10 11 12 13 14 15 16 17 18 19 20 21 22 23 24 25 26 27 28 29 30 31 32 33 34 35 36 37 38 39 40 41 42 43 44 45 46 47 48 49 50
000
ASUS44 KLIX 200710
RWRLA
LOUISIANA WEATHER ROUNDUP
NATIONAL WEATHER SERVICE NEW ORLEANS LA
200 AM CDT WED AUG 20 2014

NOTE: "FAIR" INDICATES FEW OR NO CLOUDS BELOW 12,000 FEET WITH NO
      SIGNIFICANT WEATHER AND/OR OBSTRUCTIONS TO VISIBILITY.
      SKY/WX - SKY CONDITION AND SIGNIFICANT WEATHER.
      TMP - AIR TEMPERATURE.    DP   - DEWPOINT TEMPERATURE.
      RH  - RELATIVE HUMIDITY.  PRES - PRESSURE.
      HX  - HEAT INDEX.         WCI  - WIND CHILL INDEX.

*  THESE STATIONS ARE NOT NWS OR FAA STATIONS AND ARE NOT UNDER
   NWS QUALITY CONTROL.

LAZ040-048-061>063-065-066-069-200800-
SOUTHEAST LOUISIANA

CITY           SKY/WX    TMP DP  RH WIND       PRES   REMARKS
N.O. AUDUBON   NOT AVBL
N.O. INTL ARPT PTCLDY    79  74  84 SW5       29.97F
N.O. LAKEFRONT CLEAR     82  75  79 SW6       29.98S
N.O. DOWNTOWN* FAIR      82  72  69 CALM      29.98S
SLIDELL        CLEAR     76  73  91 CALM      29.97S
BATON ROUGE    MOCLDY    74  71  91 CALM      29.97F
BOOTHVILLE     CLEAR     84  77  79 S8        29.99F
BELLE CHASSE   CLEAR     78  73  84 SW3       29.97F
BOGALUSA*        N/A     76  72  88 CALM      29.99S
GALLIANO*      NOT AVBL
NEW ROADS*     FAIR      73  72  96 CALM      29.97S
GONZALES*      FAIR      75  75 100 CALM      29.97F
HAMMOND*       PTCLDY    75  70  83 CALM      29.99S
HOUMA*         CLEAR     75  72  90 CALM      29.98S FOG
PORT FOURCHON* SUNNY     84  75  74 S6        30.00S

$$

LAZ041-044-053-054-200800-
SOUTHWEST LOUISIANA

CITY           SKY/WX    TMP DP  RH WIND       PRES   REMARKS
LAKE CHARLES   MOCLDY    75  73  93 SE5       29.96F
LAFAYETTE      PTCLDY    75  73  93 CALM      29.97F
PATTERSON      PTCLDY   N/A N/A N/A MISG        N/A
SALT POINT       N/A     80  77  90 CALM      29.97F
NEW IBERIA     MOCLDY    75  72  90 CALM      29.98F
CHENAULT AIRPK MOCLDY    73  72  96 CALM      29.97F

$$

LAZ027-028-200800-
CENTRAL LOUISIANA

CITY           SKY/WX    TMP DP  RH WIND       PRES   REMARKS
FORT POLK      MOCLDY    73  72  96 CALM      29.96F
ALEXANDRIA INT MOCLDY    75  71  87 CALM      29.94F
ALEXANDRIA     MOCLDY    75  72  90 CALM      29.96F

$$

LAZ001-002-200800-
NORTHWEST LOUISIANA

CITY           SKY/WX    TMP DP  RH WIND       PRES   REMARKS
SHREVEPORT     MOCLDY    75  68  78 S5        29.93S
BARKSDALE AFB  MOCLDY    72  69  90 SE2       29.94S
DTN SHREVEPORT MOCLDY    75  67  76 SE6       29.94S

$$

LAZ014-016-200800-
NORTHEAST LOUISIANA

CITY           SKY/WX    TMP DP  RH WIND       PRES   REMARKS
MONROE         PTCLDY    74  70  87 CALM      29.96S
TALLULAH       CLEAR     73  71  93 S3        29.95F

$$



USA.gov is the U.S. government's official web portal to all federal, state and local government web resources and services.